GW7187 Weather Reports


Display with metric or nautical units.
time (UTC)temp
F
wind
direction
speed
MPH
gust
MPH
rain 1hr
in
rain 24hr
in
rain mn
in
humidity
%
barometer
mb
20260902220852 81 62 2.0 2.0 0.00 0.00 0.00 66 1014.6
20260902220352 80 36 2.0 2.0 0.00 0.00 0.00 65 1014.6
20260902215855 81 63 2.0 2.0 0.00 0.00 0.00 67 1014.6
20260902215352 81 44 2.0 2.0 0.00 0.00 0.00 66 1014.6
20260902214853 81 96 0.0 0.0 0.00 0.00 0.00 65 1014.9
20260902214352 81 96 4.0 4.0 0.00 0.00 0.00 65 1014.6
20260902213851 81 48 3.0 3.0 0.00 0.00 0.00 65 1014.6
20260902213351 81 43 2.0 2.0 0.00 0.00 0.00 65 1014.9
20260902212851 81 92 7.0 7.0 0.00 0.00 0.00 65 1014.6
20260902212351 81 325 2.0 2.0 0.00 0.00 0.00 66 1014.9
20260902211851 81 66 2.0 2.0 0.00 0.00 0.00 66 1014.9
20260902211351 82 40 2.0 2.0 0.00 0.00 0.00 65 1014.9
20260902210854 82 48 3.0 3.0 0.00 0.00 0.00 64 1014.6
20260902210352 82 58 2.0 2.0 0.00 0.00 0.00 62 1014.9
20260902205851 82 7 2.0 2.0 0.00 0.00 0.00 63 1014.9
20260902205351 82 55 3.0 3.0 0.00 0.00 0.00 62 1014.6
20260902204851 81 56 3.0 3.0 0.00 0.00 0.00 62 1014.9
20260902204352 81 50 2.0 2.0 0.00 0.00 0.00 62 1014.9
20260902203851 82 96 2.0 2.0 0.00 0.00 0.00 63 1014.6
20260902203351 82 44 3.0 3.0 0.00 0.00 0.00 64 1014.9
20260902202851 82 78 3.0 3.0 0.00 0.00 0.00 64 1014.6
20260902202351 82 107 2.0 2.0 0.00 0.00 0.00 63 1014.6
20260902201852 82 107 2.0 2.0 0.00 0.00 0.00 63 1014.9
20260902201352 82 63 4.0 5.0 0.00 0.00 0.00 63 1014.6
20260902200352 83 83 0.0 0.0 0.00 0.00 0.00 60 1014.9
20260902195852 83 83 0.0 0.0 0.00 0.00 0.00 60 1014.9
20260902195352 83 83 0.0 0.0 0.00 0.00 0.00 60 1014.6
20260902194851 83 90 2.0 2.0 0.00 0.00 0.00 61 1014.6
20260902194351 82 138 0.0 0.0 0.00 0.00 0.00 61 1014.6
20260902193854 83 75 0.0 0.0 0.00 0.00 0.00 61 1014.9
20260902193357 83 140 1.0 1.0 0.00 0.00 0.00 61 1014.9
20260902192853 83 107 0.0 0.0 0.00 0.00 0.00 61 1014.9
20260902192352 83 6 0.0 0.0 0.00 0.00 0.00 62 1014.9
20260902191852 83 65 2.0 2.0 0.00 0.00 0.00 61 1014.9
20260902191351 83 84 3.0 3.0 0.00 0.00 0.00 60 1014.9
20260902190852 83 59 3.0 3.0 0.00 0.00 0.00 60 1014.9
20260902190351 83 55 3.0 3.0 0.00 0.00 0.00 60 1014.9
20260902185853 83 90 0.0 0.0 0.00 0.00 0.00 61 1014.9
20260902185354 83 60 3.0 3.0 0.00 0.00 0.00 62 1014.9
20260902184855 84 270 0.0 0.0 0.00 0.00 0.00 60 1014.9
20260902184354 84 267 1.0 1.0 0.00 0.00 0.00 58 1014.9
20260902183857 84 173 0.0 0.0 0.00 0.00 0.00 60 1014.9
20260902183352 84 173 0.0 0.0 0.00 0.00 0.00 59 1014.9
20260902182852 84 173 0.0 0.0 0.00 0.00 0.00 59 1014.9
20260902182352 85 178 0.0 0.0 0.00 0.00 0.00 58 1014.9
20260902181852 85 178 0.0 0.0 0.00 0.00 0.00 56 1014.9
20260902181351 86 89 2.0 2.0 0.00 0.00 0.00 52 1014.9
20260902180852 86 121 0.0 0.0 0.00 0.00 0.00 54 1014.9
20260902180355 86 82 2.0 2.0 0.00 0.00 0.00 53 1014.9
20260902175853 86 37 4.0 4.0 0.00 0.00 0.00 55 1014.9
20260902175352 86 72 0.0 0.0 0.00 0.00 0.00 52 1014.9
20260902174852 87 200 2.0 2.0 0.00 0.00 0.00 52 1014.9
20260902174352 87 360 2.0 2.0 0.00 0.00 0.00 48 1014.9
20260902173851 86 294 3.0 3.0 0.00 0.00 0.00 48 1014.9
20260902173352 87 306 2.0 2.0 0.00 0.00 0.00 53 1014.6
20260902172851 88 328 2.0 2.0 0.00 0.00 0.00 45 1014.9
20260902172352 88 9 3.0 3.0 0.00 0.00 0.00 48 1014.9
20260902171851 89 324 1.0 1.0 0.00 0.00 0.00 48 1014.6
20260902171353 89 316 2.0 2.0 0.00 0.00 0.00 49 1014.9
20260902170852 89 6 4.0 5.0 0.00 0.00 0.00 48 1014.6
20260902170352 89 278 2.0 2.0 0.00 0.00 0.00 49 1014.9
20260902165856 89 55 2.0 2.0 0.00 0.00 0.00 47 1014.6
20260902165351 89 337 2.0 2.0 0.00 0.00 0.00 45 1014.6
20260902164851 90 65 3.0 4.0 0.00 0.00 0.00 44 1014.2
20260902164352 89 42 5.0 5.0 0.00 0.00 0.00 44 1014.6
20260902163852 89 68 1.0 1.0 0.00 0.00 0.00 45 1014.2
20260902163352 90 222 0.0 0.0 0.00 0.00 0.00 44 1014.6
20260902162852 90 204 1.0 1.0 0.00 0.00 0.00 44 1014.2
20260902162352 90 360 0.0 0.0 0.00 0.00 0.00 44 1014.2
20260902161853 90 286 2.0 2.0 0.00 0.00 0.00 45 1014.2
20260902161352 90 89 3.0 3.0 0.00 0.00 0.00 46 1014.2
20260902160852 90 270 5.0 5.0 0.00 0.00 0.00 45 1013.9
20260902155905 90 263 5.0 6.0 0.00 0.00 0.00 48 1013.9
20260902155351 91 305 9.0 11.0 0.00 0.00 0.00 48 1013.9
20260902154852 91 300 5.0 7.0 0.00 0.00 0.00 48 1013.9
20260902154352 91 291 6.0 7.0 0.00 0.00 0.00 47 1013.9
20260902153852 91 239 8.0 8.0 0.00 0.00 0.00 47 1013.9
20260902153352 91 253 8.0 8.0 0.00 0.00 0.00 47 1013.9
20260902152851 92 341 14.0 16.0 0.00 0.00 0.00 46 1013.9
20260902152352 92 286 9.0 10.0 0.00 0.00 0.00 45 1014.2
20260902151852 92 5 11.0 13.0 0.00 0.00 0.00 45 1014.2
20260902151352 93 288 8.0 8.0 0.00 0.00 0.00 44 1014.2
20260902150901 92 298 7.0 8.0 0.00 0.00 0.00 44 1014.2
20260902150351 91 312 14.0 17.0 0.00 0.00 0.00 44 1014.2
20260902145851 91 192 5.0 5.0 0.00 0.00 0.00 44 1014.2
20260902145352 91 291 14.0 15.0 0.00 0.00 0.00 43 1014.2
20260902144852 92 246 9.0 9.0 0.00 0.00 0.00 43 1014.2
20260902144352 92 304 11.0 12.0 0.00 0.00 0.00 42 1014.2
20260902143853 92 292 11.0 12.0 0.00 0.00 0.00 43 1014.2
20260902143352 93 282 7.0 7.0 0.00 0.00 0.00 44 1014.2
20260902142852 93 300 8.0 8.0 0.00 0.00 0.00 43 1014.2
20260902142352 93 301 10.0 11.0 0.00 0.00 0.00 45 1014.2
20260902141851 93 270 8.0 8.0 0.00 0.00 0.00 43 1014.2
20260902141352 93 222 3.0 3.0 0.00 0.00 0.00 43 1014.2
20260902140853 94 251 10.0 12.0 0.00 0.00 0.00 42 1014.2
20260902140351 94 294 7.0 7.0 0.00 0.00 0.00 42 1014.2
20260902135853 94 252 9.0 11.0 0.00 0.00 0.00 38 1014.2
20260902135352 94 284 9.0 9.0 0.00 0.00 0.00 39 1014.2
20260902134853 94 232 4.0 5.0 0.00 0.00 0.00 38 1014.2
20260902134351 94 306 7.0 7.0 0.00 0.00 0.00 39 1014.2
20260902133852 94 281 7.0 7.0 0.00 0.00 0.00 34 1014.2
20260902133351 94 306 9.0 9.0 0.00 0.00 0.00 36 1014.2
20260902132905 94 282 10.0 11.0 0.00 0.00 0.00 37 1014.2
20260902132351 94 275 9.0 10.0 0.00 0.00 0.00 38 1014.2
20260902131851 95 258 10.0 11.0 0.00 0.00 0.00 38 1014.6
20260902131351 95 292 8.0 8.0 0.00 0.00 0.00 36 1014.2
20260902130852 95 216 8.0 8.0 0.00 0.00 0.00 34 1014.2
20260902130352 96 270 10.0 11.0 0.00 0.00 0.00 31 1014.2
20260902125852 96 276 6.0 7.0 0.00 0.00 0.00 30 1014.2
20260902125353 95 240 8.0 8.0 0.00 0.00 0.00 30 1014.6
20260902124851 95 280 5.0 6.0 0.00 0.00 0.00 30 1014.2
20260902124351 95 318 5.0 7.0 0.00 0.00 0.00 32 1014.2
20260902123852 95 275 9.0 9.0 0.00 0.00 0.00 32 1014.6
20260902123351 95 240 8.0 9.0 0.00 0.00 0.00 29 1014.6
20260902122851 95 283 5.0 6.0 0.00 0.00 0.00 31 1014.6
20260902122351 96 280 8.0 8.0 0.00 0.00 0.00 32 1014.2
20260902121852 96 276 3.0 4.0 0.00 0.00 0.00 31 1014.6
20260902121351 95 258 5.0 7.0 0.00 0.00 0.00 32 1014.6
20260902120851 95 348 5.0 5.0 0.00 0.00 0.00 33 1014.6
20260902120351 95 324 5.0 5.0 0.00 0.00 0.00 32 1014.6
20260902115851 95 300 9.0 11.0 0.00 0.00 0.00 29 1014.6
20260902115352 96 264 5.0 5.0 0.00 0.00 0.00 28 1014.6
20260902114853 95 264 11.0 14.0 0.00 0.00 0.00 29 1014.9
20260902114351 95 305 7.0 8.0 0.00 0.00 0.00 32 1014.6
20260902113851 95 328 6.0 7.0 0.00 0.00 0.00 31 1014.9
20260902113351 95 312 5.0 7.0 0.00 0.00 0.00 32 1014.6
20260902112852 96 294 3.0 4.0 0.00 0.00 0.00 30 1014.9
20260902112351 95 283 3.0 3.0 0.00 0.00 0.00 32 1014.9
20260902111851 95 301 4.0 5.0 0.00 0.00 0.00 29 1014.9
20260902111351 96 295 8.0 9.0 0.00 0.00 0.00 30 1015.2
20260902110851 95 289 5.0 5.0 0.00 0.00 0.00 31 1015.2
20260902110351 95 318 5.0 6.0 0.00 0.00 0.00 30 1015.2
20260902105851 95 228 7.0 8.0 0.00 0.00 0.00 32 1015.2
20260902105351 95 270 8.0 8.0 0.00 0.00 0.00 31 1015.2
20260902104854 94 318 5.0 5.0 0.00 0.00 0.00 32 1015.2
20260902104351 94 240 6.0 7.0 0.00 0.00 0.00 32 1015.2
20260902103851 94 252 7.0 7.0 0.00 0.00 0.00 32 1015.2
20260902103354 95 336 4.0 5.0 0.00 0.00 0.00 31 1015.2
20260902102851 96 66 2.0 2.0 0.00 0.00 0.00 32 1015.2
20260902102351 96 42 4.0 5.0 0.00 0.00 0.00 31 1015.2
20260902101852 97 150 3.0 3.0 0.00 0.00 0.00 33 1015.2
20260902101351 96 315 2.0 2.0 0.00 0.00 0.00 33 1015.2
20260902100852 96 180 3.0 4.0 0.00 0.00 0.00 34 1015.6
20260902100352 97 228 5.0 5.0 0.00 0.00 0.00 33 1015.6
20260902095851 97 120 2.0 2.0 0.00 0.00 0.00 32 1015.6
20260902095353 95 186 2.0 2.0 0.00 0.00 0.00 34 1015.9
20260902094851 92 84 0.0 0.0 0.00 0.00 0.00 34 1015.6
20260902094351 92 108 0.0 0.0 0.00 0.00 0.00 33 1015.9
20260902093851 95 126 0.0 0.0 0.00 0.00 0.00 34 1015.9
20260902093352 94 90 0.0 0.0 0.00 0.00 0.00 36 1015.9
20260902092851 94 353 0.0 0.0 0.00 0.00 0.00 36 1015.9
20260902092352 94 174 0.0 0.0 0.00 0.00 0.00 35 1015.9
20260902091852 93 48 1.0 1.0 0.00 0.00 0.00 35 1015.9
20260902091351 91 132 0.0 0.0 0.00 0.00 0.00 35 1016.3
20260902090852 92 66 0.0 0.0 0.00 0.00 0.00 35 1016.3
20260902090351 92 5 1.0 1.0 0.00 0.00 0.00 36 1015.9
20260902085851 93 114 2.0 2.0 0.00 0.00 0.00 36 1016.3
20260902085351 93 138 2.0 2.0 0.00 0.00 0.00 37 1016.3
20260902084851 91 60 0.0 0.0 0.00 0.00 0.00 39 1016.3
20260902084351 92 60 2.0 2.0 0.00 0.00 0.00 37 1016.3
20260902083851 93 120 0.0 0.0 0.00 0.00 0.00 37 1016.3
20260902083350 92 66 0.0 0.0 0.00 0.00 0.00 39 1016.6
20260902082852 90 168 3.0 3.0 0.00 0.00 0.00 40 1016.6
20260902082351 89 126 2.0 2.0 0.00 0.00 0.00 39 1016.6
20260902081852 91 108 0.0 0.0 0.00 0.00 0.00 38 1016.6
20260902081352 90 78 2.0 2.0 0.00 0.00 0.00 39 1016.6
20260902080851 90 132 0.0 0.0 0.00 0.00 0.00 39 1016.9
20260902080352 89 360 0.0 0.0 0.00 0.00 0.00 40 1016.9
20260902075851 90 66 1.0 1.0 0.00 0.00 0.00 39 1016.6
20260902075351 89 48 0.0 0.0 0.00 0.00 0.00 38 1016.9
20260902074851 88 138 0.0 0.0 0.00 0.00 0.00 37 1016.9
20260902074351 89 180 0.0 0.0 0.00 0.00 0.00 41 1016.6
20260902073851 88 100 0.0 0.0 0.00 0.00 0.00 39 1016.9
20260902073351 88 126 1.0 1.0 0.00 0.00 0.00 41 1016.9
20260902072851 87 89 0.0 0.0 0.00 0.00 0.00 43 1016.9
20260902072353 86 193 3.0 3.0 0.00 0.00 0.00 44 1016.9
20260902071851 85 186 0.0 0.0 0.00 0.00 0.00 45 1016.9
20260902071352 85 193 0.0 0.0 0.00 0.00 0.00 49 1016.9
20260902070852 84 228 2.0 2.0 0.00 0.00 0.00 50 1016.9
20260902070352 85 228 5.0 6.0 0.00 0.00 0.00 50 1016.9
20260902065851 84 222 2.0 2.0 0.00 0.00 0.00 50 1016.9
20260902065351 83 234 3.0 3.0 0.00 0.00 0.00 52 1016.9
20260902064851 84 278 4.0 4.0 0.00 0.00 0.00 51 1016.9
20260902064351 84 248 1.0 1.0 0.00 0.00 0.00 51 1017.3
20260902063852 83 144 2.0 2.0 0.00 0.00 0.00 53 1016.9
20260902063351 83 133 2.0 2.0 0.00 0.00 0.00 52 1017.3
20260902062851 82 133 2.0 2.0 0.00 0.00 0.00 53 1017.3
20260902062351 82 115 2.0 2.0 0.00 0.00 0.00 53 1017.3
20260902061851 81 138 1.0 1.0 0.00 0.00 0.00 55 1017.3
20260902061351 81 162 7.0 7.0 0.00 0.00 0.00 58 1017.3
20260902060851 81 172 2.0 2.0 0.00 0.00 0.00 56 1017.3
20260902060351 80 121 3.0 3.0 0.00 0.00 0.00 59 1017.3
20260902055852 79 212 3.0 3.0 0.00 0.00 0.00 62 1017.3
20260902055351 80 198 4.0 4.0 0.00 0.00 0.00 61 1017.3
20260902054851 79 173 2.0 2.0 0.00 0.00 0.00 63 1017.3
20260902054351 80 132 0.0 0.0 0.00 0.00 0.00 61 1017.3
20260902053851 79 132 0.0 0.0 0.00 0.00 0.00 61 1017.3
20260902053351 79 141 0.0 0.0 0.00 0.00 0.00 63 1017.3
20260902052851 80 141 2.0 2.0 0.00 0.00 0.00 61 1017.3
20260902052351 79 141 0.0 0.0 0.00 0.00 0.00 62 1017.3
20260902051851 78 141 0.0 0.0 0.00 0.00 0.00 64 1017.3
20260902051353 79 141 1.0 1.0 0.00 0.00 0.00 63 1017.3
20260902050852 79 144 0.0 0.0 0.00 0.00 0.00 64 1017.3
20260902050352 78 144 0.0 0.0 0.00 0.00 0.00 64 1017.3
20260902045852 77 144 0.0 0.0 0.00 0.00 0.00 66 1017.6
20260902045352 77 144 0.0 0.0 0.00 0.00 0.00 69 1017.3
20260902044851 76 157 1.0 1.0 0.00 0.00 0.00 69 1017.3
20260902044351 75 156 0.0 0.0 0.00 0.00 0.00 70 1017.3
20260902043852 75 170 0.0 0.0 0.00 0.00 0.00 71 1017.3
20260902043351 75 170 0.0 0.0 0.00 0.00 0.00 72 1017.3
20260902042852 74 170 2.0 2.0 0.00 0.00 0.00 72 1017.3
20260902042351 73 231 2.0 2.0 0.00 0.00 0.00 74 1017.3
20260902041851 73 120 0.0 0.0 0.00 0.00 0.00 74 1016.9
20260902041351 73 169 3.0 3.0 0.00 0.00 0.00 74 1017.3
20260902040852 72 247 1.0 1.0 0.00 0.00 0.00 75 1017.3
20260902040352 72 218 7.0 7.0 0.00 0.00 0.00 76 1017.3
20260902035851 72 227 5.0 6.0 0.00 0.00 0.00 76 1017.3
20260902035352 72 218 8.0 8.0 0.00 0.00 0.00 77 1017.3
20260902034851 72 211 8.0 9.0 0.00 0.00 0.00 77 1016.9
20260902034353 74 236 2.0 2.0 0.00 0.00 0.00 75 1016.9
20260902033852 74 236 0.0 0.0 0.00 0.00 0.00 74 1016.9
20260902033351 75 236 0.0 0.0 0.00 0.00 0.00 74 1016.9
20260902032851 74 236 0.0 0.0 0.00 0.00 0.00 74 1016.9
20260902032351 74 236 0.0 0.0 0.00 0.00 0.00 74 1016.6
20260902031851 74 236 0.0 0.0 0.00 0.00 0.00 74 1016.6
20260902031351 75 236 0.0 0.0 0.00 0.00 0.00 74 1016.6
20260902030851 74 236 0.0 0.0 0.00 0.00 0.00 74 1016.6
20260902030351 74 236 0.0 0.0 0.00 0.00 0.00 74 1016.6
20260902025851 75 236 0.0 0.0 0.00 0.00 0.00 73 1016.6
20260902025351 75 236 0.0 0.0 0.00 0.00 0.00 73 1016.6
20260902024851 75 236 0.0 0.0 0.00 0.00 0.00 73 1016.6
20260902024351 75 236 0.0 0.0 0.00 0.00 0.00 73 1016.3
20260902023852 75 236 0.0 0.0 0.00 0.00 0.00 72 1016.3
20260902023351 75 236 0.0 0.0 0.00 0.00 0.00 72 1016.3
20260902022851 75 252 3.0 3.0 0.00 0.00 0.00 73 1016.3
20260902022352 75 168 4.0 4.0 0.00 0.00 0.00 72 1016.3
20260902021853 75 194 1.0 1.0 0.00 0.00 0.00 73 1016.3
20260902021351 75 192 1.0 1.0 0.00 0.00 0.00 73 1016.3
20260902020852 76 156 0.0 0.0 0.00 0.00 0.00 73 1016.3
20260902020351 76 156 0.0 0.0 0.00 0.00 0.00 73 1016.3
20260902015851 75 156 0.0 0.0 0.00 0.00 0.00 73 1016.3
20260902015351 76 200 0.0 0.0 0.00 0.00 0.00 73 1016.3
20260902014852 76 37 0.0 0.0 0.00 0.00 0.00 73 1016.3
20260902014351 76 50 0.0 0.0 0.00 0.00 0.00 73 1015.9
20260902013851 76 54 0.0 0.0 0.00 0.00 0.00 72 1016.3
20260902013352 77 54 0.0 0.0 0.00 0.00 0.00 71 1016.3
20260902012852 77 6 0.0 0.0 0.00 0.00 0.00 71 1016.3
20260902012351 77 120 0.0 0.0 0.00 0.00 0.00 70 1016.3
20260902011851 77 138 0.0 0.0 0.00 0.00 0.00 70 1016.3
20260902011351 77 145 0.0 0.0 0.00 0.00 0.00 70 1016.3
20260902010851 77 233 1.0 1.0 0.00 0.00 0.00 69 1016.3
20260902010351 78 149 1.0 1.0 0.00 0.00 0.00 69 1016.3
20260902005918 78 241 0.0 0.0 0.00 0.00 0.00 69 1015.9
20260902005352 78 122 3.0 3.0 0.00 0.00 0.00 67 1015.9
20260902004851 78 356 1.0 1.0 0.00 0.00 0.00 66 1015.9
20260902004356 78 287 1.0 1.0 0.00 0.00 0.00 59 1016.3
20260902003851 78 241 2.0 2.0 0.00 0.00 0.00 65 1015.9
20260902003351 78 86 3.0 3.0 0.00 0.00 0.00 66 1015.9
20260902002851 79 74 2.0 2.0 0.00 0.00 0.00 65 1015.9
20260902002352 79 7 1.0 1.0 0.00 0.00 0.00 62 1015.9
20260902001854 79 294 1.0 1.0 0.00 0.00 0.00 62 1015.9
20260902001351 79 80 4.0 5.0 0.00 0.00 0.00 65 1016.3
20260902000851 79 74 0.0 0.0 0.00 0.00 0.00 64 1015.9
20260902000352 79 42 0.0 0.0 0.00 0.00 0.00 63 1015.9
20260901235851 79 78 1.0 1.0 0.00 0.00 0.00 62 1015.9
20260901235351 79 132 1.0 1.0 0.00 0.00 0.00 62 1015.9
20260901234852 79 67 2.0 2.0 0.00 0.00 0.00 60 1015.9
20260901234351 79 150 0.0 0.0 0.00 0.00 0.00 60 1015.9
20260901233851 79 198 5.0 5.0 0.00 0.00 0.00 58 1015.6
20260901233353 80 233 2.0 2.0 0.00 0.00 0.00 53 1015.9
20260901232851 80 276 2.0 2.0 0.00 0.00 0.00 55 1015.9
20260901232351 82 336 1.0 1.0 0.00 0.00 0.00 51 1015.6
20260901231852 82 261 0.0 0.0 0.00 0.00 0.00 48 1015.9
20260901231352 83 186 1.0 1.0 0.00 0.00 0.00 47 1015.9
20260901230852 83 90 2.0 2.0 0.00 0.00 0.00 46 1015.6
20260901230352 82 145 3.0 3.0 0.00 0.00 0.00 50 1015.6
20260901225853 82 344 3.0 3.0 0.00 0.00 0.00 46 1015.9
20260901225351 81 114 2.0 2.0 0.00 0.00 0.00 55 1015.6
20260901224852 81 336 4.0 4.0 0.00 0.00 0.00 54 1015.9
20260901224351 81 345 4.0 5.0 0.00 0.00 0.00 57 1015.9
20260901223852 81 8 7.0 8.0 0.00 0.00 0.00 58 1015.9
20260901223352 82 7 4.0 4.0 0.00 0.00 0.00 53 1016.3
20260901222851 82 360 4.0 5.0 0.00 0.00 0.00 52 1015.9
20260901222352 81 357 3.0 3.0 0.00 0.00 0.00 53 1015.9
20260901221851 82 339 5.0 6.0 0.00 0.00 0.00 57 1016.3
20260901221351 82 59 8.0 8.0 0.00 0.00 0.00 54 1016.3